Regional Weather Roundup
Issued by NWS

Home | Current Version | Previous Version | Text Only | Print | Product List | Glossary Off
Versions: 1 2 3 4 5 6 7 8 9 10 11 12 13 14 15 16 17 18 19 20 21 22 23 24 25 26 27 28 29 30 31 32 33 34 35 36 37 38 39 40 41 42 43 44 45 46 47 48 49 50

000
ASUS43 KDTX 280310
RWRMI
MICHIGAN HOURLY REGIONAL WEATHER ROUNDUP
NATIONAL WEATHER SERVICE DETROIT/PONTIAC MI
1100 PM EDT THU AUG 27 2015

NOTE: "FAIR" INDICATES FEW OR NO CLOUDS BELOW 12,000 FEET WITH NO
SIGNIFICANT WEATHER AND/OR OBSTRUCTION TO VISIBILITY.

MIZ047>049-052>055-059>063-066>070-074>076-081>083-280400-
SOUTHEAST LOWER MICHIGAN

CITY           SKY/WX    TMP DP  RH WIND       PRES   REMARKS
ADRIAN         CLEAR     55  53  93 CALM      30.19F
ALMA           CLEAR     56  54  94 S3        30.17F
ANN ARBOR      CLEAR     51  50  96 CALM      30.19S
BAD AXE        CLEAR     51  49  93 CALM      30.19S
CARO             N/A     52  51  99 CALM      30.18S FOG
DETROIT CITY   CLEAR     59  53  80 CALM      30.20R
DETROIT        PTCLDY    60  53  77 CALM      30.20S
FLINT          CLEAR     53  50  89 CALM      30.19S
GROSSE ILE     CLEAR     61  55  82 E3        30.19S
HILLSDALE      CLEAR     55  55 100 E3        30.19S
HOWELL         CLEAR     52  50  93 CALM      30.18F

CITY           SKY/WX    TMP DP  RH WIND       PRES   REMARKS
JACKSON        CLEAR     55  52  89 SE5       30.19S
LAMBERTVILLE   PTCLDY    56  53  90 CALM      30.19S
LANSING        CLEAR     57  53  86 CALM      30.18F
LAPEER         FAIR      50  50 100 CALM      30.20S FOG
MASON          FOG       51  51  97 CALM      30.18S VSB 3/4
MONROE         CLEAR     56  53  89 CALM      30.18S
MT. CLEMENS    CLEAR     56  53  89 CALM      30.18S
PONTIAC        PTCLDY    53  51  93 CALM      30.19S
PORT HOPE        N/A     56  53  90 S5        30.16F
PORT HURON     CLEAR     54  54 100 CALM      30.20S FOG
TRI CITIES     CLEAR     59  54  83 S6        30.18F
MIDLAND        FAIR      60  54  80 S3        30.16S
TROY           CLEAR     58  54  86 CALM      30.21R
SAGINAW HB     CLEAR     55  54  94 S6        30.17S
$$
MIZ043>046-050>051-056>058-064>065-071>073-077>080-280400-
SOUTHWEST LOWER MICHIGAN

CITY           SKY/WX    TMP DP  RH WIND       PRES   REMARKS
BATTLE CREEK   CLEAR     59  53  80 CALM      30.18R
BENTON HARBOR  PTCLDY    56  54  93 CALM      30.16R
BIG RAPIDS     PTCLDY    59  57  92 W5        30.16S
COLDWATER      CLEAR     57  55  93 SE3       30.18S
FREMONT        FAIR      55  55 100 CALM      30.16S FOG
HOLLAND        PTCLDY    57  55  93 CALM      30.17S
GRAND RAPIDS   CLEAR     58  56  93 CALM      30.17R
IONIA          FAIR      59  55  87 CALM      30.17S
KALAMAZOO      CLEAR     58  52  80 CALM      30.18R
LUDINGTON      CLEAR     58  55  88 CALM      30.15F
MARSHALL       CLEAR     53  51  93 CALM      30.17S
MOUNT PLEASANT CLEAR     61  55  82 S3        30.16S
MUSKEGON       PTCLDY    58  54  86 SE3       30.16S
SOUTH HAVEN    CLEAR     55  54  94 CALM      30.17S
$$
MIZ016>042-280400-
NORTHERN LOWER MICHIGAN

CITY           SKY/WX    TMP DP  RH WIND       PRES   REMARKS
ALPENA         CLEAR     53  51  93 CALM      30.16S
BEAVER ISLAND  CLEAR     59  58  97 SW5       30.12S
BELLAIRE       CLEAR     55  54  95 CALM      30.14S FOG
CADILLAC       CLEAR     54  53  96 CALM      30.16S
CHARLEVOIX     CLEAR     58  56  96 CALM      30.16S
FRANKFORT      CLEAR     57  56  96 CALM      30.14R
GAYLORD        CLEAR     59  56  89 CALM      30.15S
GRAYLING       PTCLDY    56  54  94 CALM      30.15F
HARBOR SPRINGS CLEAR     57  56  94 CALM      30.13F
HOUGHTON LAKE  MOCLDY    61  56  83 S8        30.16R
MANISTEE       CLEAR     55  52  88 CALM      30.15S
OSCODA         CLEAR     52  49  90 CALM      30.16S
PELLSTON       CLEAR     51  50  96 CALM      30.13S
ROGERS CITY    CLEAR     57  53  88 SE6       30.15S
TRAVERSE CITY  CLEAR     59  55  87 S3        30.13S
$$
MIZ007>008-015-280400-
EASTERN UPPER MICHIGAN

CITY           SKY/WX    TMP DP  RH WIND       PRES   REMARKS
KINROSS        CLEAR     54  54 100 S7        30.12F
MACKINAC ISLAN CLEAR     55  53  92 SE7       30.12S
NEWBERRY       MOCLDY    58  57  99 S7        30.10F FOG
S. S. MARIE    CLEAR     55  51  86 S3        30.11S
MUNISING         N/A     62  57  83 S8        30.07F
$$
MIZ004>006-011>014-085-280400-
CENTRAL UPPER MICHIGAN

CITY           SKY/WX    TMP DP  RH WIND       PRES   REMARKS
MANISTIQUE     CLEAR     61  58  90 SW7       30.10S
ESCANABA       CLEAR     63  57  82 S6        30.08F
MENOMINEE      CLEAR     61  54  77 S7        30.08F
SAWYER-GWINN   CLEAR     60  56  88 S12       30.08F
$$
MIZ001>003-009>011-084-280400-
WESTERN UPPER MICHIGAN

CITY           SKY/WX    TMP DP  RH WIND       PRES   REMARKS
IRON MOUNTAIN  CLEAR     61  55  81 S6        30.07S
HOUGHTON       CLEAR     54  50  86 E6        30.03F
COPPER HARBOR    N/A     57  53  86 VRB6      30.02F
IRONWOOD       PTCLDY    66  57  72 SW7G16    30.01S
$$

ABBREVIATIONS USED IN REMARKS
   TC - TEMPERATURE IN CELSIUS
  WCI - WIND CHILL INDEX
   HX - HEAT INDEX
  VSB - VISIBILITY



USA.gov is the U.S. government's official web portal to all federal, state and local government web resources and services.